• în Republica Moldova
  • Lista ţărilor
  • Pe 7 zile
  • Temperatura apei
  • Hartă satelitară
  • Meteo pe hartă
  • Widget-uri
  • user-avatar
    Intrare

    Meteo pe oră la Wien

    Astăzi, 21 August, Luni

    Timp Temperatura Precipitaţii Vânt Presiune Umiditate
    00:00 +14°C° 0 mm 3 m/s 748 mmHg 67%
    01:00 +14°C° 0 mm 2 m/s 748 mmHg 70%
    02:00 +14°C° 0 mm 2 m/s 748 mmHg 70%
    03:00 +13°C° 0 mm 3 m/s 748 mmHg 70%
    04:00 +12°C° 0 mm 3 m/s 748 mmHg 71%
    05:00 +13°C° 0 mm 3 m/s 748 mmHg 68%
    06:00 +14°C° 0 mm 4 m/s 748 mmHg 65%
    07:00 +15°C° 0 mm 4 m/s 748 mmHg 63%
    08:00 +18°C° 0 mm 4 m/s 748 mmHg 58%
    09:00 +19°C° 0 mm 5 m/s 748 mmHg 53%
    10:00 +21°C° 0 mm 5 m/s 748 mmHg 48%
    11:00 +21°C° 0 mm 5 m/s 747 mmHg 45%
    12:00 +22°C° 0 mm 5 m/s 747 mmHg 43%
    13:00 +23°C° 0 mm 5 m/s 747 mmHg 41%
    14:00 +23°C° 0 mm 5 m/s 747 mmHg 41%
    15:00 +22°C° 0 mm 4 m/s 747 mmHg 42%
    16:00 +22°C° 0 mm 4 m/s 746 mmHg 42%
    17:00 +21°C° 0 mm 4 m/s 746 mmHg 47%
    18:00 +20°C° 0 mm 3 m/s 747 mmHg 51%
    19:00 +18°C° 0 mm 2 m/s 747 mmHg 55%
    20:00 +17°C° 0 mm 2 m/s 747 mmHg 59%
    21:00 +16°C° 0 mm 2 m/s 747 mmHg 63%
    22:00 +15°C° 0 mm 2 m/s 748 mmHg 66%
    23:00 +15°C° 0 mm 2 m/s 748 mmHg 68%

    Mâine, 22 August, Marţi

    Timp Temperatura Precipitaţii Vânt Presiune Umiditate
    00:00 +14°C° 0 mm 2 m/s 748 mmHg 70%
    01:00 +14°C° 0 mm 2 m/s 748 mmHg 72%
    02:00 +13°C° 0 mm 2 m/s 748 mmHg 73%
    03:00 +13°C° 0 mm 2 m/s 747 mmHg 74%
    04:00 +13°C° 0 mm 2 m/s 747 mmHg 75%
    05:00 +14°C° 0 mm 2 m/s 747 mmHg 72%
    06:00 +15°C° 0 mm 2 m/s 747 mmHg 68%
    07:00 +16°C° 0 mm 3 m/s 748 mmHg 64%
    08:00 +18°C° 0 mm 3 m/s 747 mmHg 58%
    09:00 +20°C° 0 mm 3 m/s 747 mmHg 51%
    10:00 +22°C° 0 mm 3 m/s 747 mmHg 45%
    11:00 +24°C° 0 mm 3 m/s 747 mmHg 42%
    12:00 +25°C° 0 mm 3 m/s 746 mmHg 39%
    13:00 +26°C° 0 mm 3 m/s 746 mmHg 35%
    14:00 +25°C° 0 mm 3 m/s 745 mmHg 36%
    15:00 +25°C° 0 mm 3 m/s 745 mmHg 36%
    16:00 +25°C° 0 mm 4 m/s 744 mmHg 36%
    17:00 +24°C° 0 mm 3 m/s 744 mmHg 42%
    18:00 +21°C° 0 mm 3 m/s 744 mmHg 48%
    19:00 +19°C° 0 mm 2 m/s 744 mmHg 54%
    20:00 +18°C° 0 mm 2 m/s 745 mmHg 58%
    21:00 +17°C° 0 mm 2 m/s 745 mmHg 62%
    22:00 +16°C° 0 mm 2 m/s 745 mmHg 66%
    23:00 +16°C° 0 mm 2 m/s 745 mmHg 69%

    Poimâine, 23 August, Miercuri

    Timp Temperatura Precipitaţii Vânt Presiune Umiditate
    00:00 +15°C° 0 mm 2 m/s 745 mmHg 72%
    01:00 +14°C° 0 mm 2 m/s 746 mmHg 75%
    02:00 +14°C° 0 mm 2 m/s 746 mmHg 78%
    03:00 +13°C° 0 mm 2 m/s 746 mmHg 81%
    04:00 +13°C° 0 mm 2 m/s 746 mmHg 84%
    05:00 +13°C° 0 mm 2 m/s 746 mmHg 80%
    06:00 +14°C° 0 mm 2 m/s 746 mmHg 75%
    07:00 +15°C° 0 mm 1 m/s 746 mmHg 71%
    08:00 +17°C° 0 mm 2 m/s 746 mmHg 64%
    09:00 +19°C° 0 mm 2 m/s 746 mmHg 57%
    10:00 +21°C° 0 mm 2 m/s 746 mmHg 50%
    11:00 +23°C° 0 mm 2 m/s 746 mmHg 46%
    12:00 +24°C° 0 mm 2 m/s 746 mmHg 41%
    13:00 +25°C° 0 mm 2 m/s 746 mmHg 37%
    14:00 +26°C° 0 mm 2 m/s 745 mmHg 36%
    15:00 +26°C° 0 mm 2 m/s 745 mmHg 35%
    16:00 +26°C° 0 mm 1 m/s 745 mmHg 35%
    17:00 +24°C° 0 mm 1 m/s 745 mmHg 39%
    18:00 +22°C° 0 mm 1 m/s 745 mmHg 43%
    19:00 +20°C° 0 mm 1 m/s 745 mmHg 48%
    20:00 +19°C° 0 mm 1 m/s 745 mmHg 49%
    21:00 +18°C° 0 mm 1 m/s 745 mmHg 50%
    22:00 +18°C° 0 mm 1 m/s 746 mmHg 52%
    23:00 +16°C° 0 mm 1 m/s 746 mmHg 54%

    24 August, Joi

    Timp Temperatura Precipitaţii Vânt Presiune Umiditate
    00:00 +16°C° 0 mm 1 m/s 746 mmHg 55%
    01:00 +15°C° 0 mm 1 m/s 746 mmHg 57%
    02:00 +15°C° 0 mm 1 m/s 745 mmHg 58%
    03:00 +15°C° 0 mm 1 m/s 745 mmHg 59%
    04:00 +14°C° 0 mm 1 m/s 745 mmHg 61%
    05:00 +15°C° 0 mm 1 m/s 746 mmHg 58%
    06:00 +18°C° 0 mm 1 m/s 746 mmHg 56%
    07:00 +19°C° 0 mm 1 m/s 746 mmHg 54%
    08:00 +21°C° 0 mm 1 m/s 746 mmHg 49%
    09:00 +24°C° 0 mm 2 m/s 746 mmHg 43%
    10:00 +26°C° 0 mm 2 m/s 746 mmHg 38%
    11:00 +27°C° 0 mm 2 m/s 746 mmHg 36%
    12:00 +29°C° 0 mm 2 m/s 745 mmHg 35%
    13:00 +30°C° 0 mm 2 m/s 745 mmHg 33%
    14:00 +31°C° 0 mm 2 m/s 745 mmHg 33%
    15:00 +31°C° 0 mm 2 m/s 744 mmHg 33%
    16:00 +31°C° 0 mm 1 m/s 744 mmHg 33%
    17:00 +29°C° 0 mm 1 m/s 744 mmHg 37%
    18:00 +27°C° 0 mm 1 m/s 744 mmHg 42%
    19:00 +25°C° 0 mm 1 m/s 744 mmHg 47%
    20:00 +24°C° 0,1 mm 2 m/s 744 mmHg 50%
    21:00 +24°C° 0,1 mm 2 m/s 745 mmHg 52%
    22:00 +23°C° 0,1 mm 2 m/s 745 mmHg 55%
    23:00 +22°C° 0 mm 1 m/s 745 mmHg 58%

    25 August, Vineri

    Timp Temperatura Precipitaţii Vânt Presiune Umiditate
    00:00 +22°C° 0 mm 1 m/s 745 mmHg 61%
    01:00 +21°C° 0 mm 1 m/s 744 mmHg 63%
    02:00 +21°C° 0 mm 1 m/s 744 mmHg 66%
    03:00 +20°C° 0 mm 1 m/s 744 mmHg 68%
    04:00 +20°C° 0 mm 1 m/s 744 mmHg 70%
    05:00 +21°C° 0 mm 1 m/s 745 mmHg 68%
    06:00 +22°C° 0 mm 1 m/s 745 mmHg 65%
    07:00 +23°C° 0 mm 1 m/s 745 mmHg 63%
    08:00 +25°C° 0 mm 1 m/s 745 mmHg 57%
    09:00 +27°C° 0 mm 1 m/s 745 mmHg 51%
    10:00 +29°C° 0 mm 2 m/s 745 mmHg 45%
    11:00 +30°C° 0 mm 2 m/s 745 mmHg 41%
    12:00 +32°C° 0 mm 2 m/s 745 mmHg 37%
    13:00 +34°C° 0 mm 3 m/s 744 mmHg 33%
    14:00 +35°C° 0 mm 3 m/s 744 mmHg 33%
    15:00 +35°C° 0 mm 3 m/s 744 mmHg 32%
    16:00 +35°C° 0 mm 2 m/s 743 mmHg 31%
    17:00 +32°C° 0 mm 2 m/s 743 mmHg 36%
    18:00 +30°C° 0 mm 2 m/s 743 mmHg 41%
    19:00 +28°C° 0 mm 1 m/s 743 mmHg 46%
    20:00 +27°C° 0 mm 1 m/s 744 mmHg 49%
    21:00 +26°C° 0 mm 2 m/s 744 mmHg 51%
    22:00 +25°C° 0 mm 2 m/s 744 mmHg 54%
    23:00 +24°C° 0 mm 2 m/s 744 mmHg 56%

    26 August, Sâmbătă

    Timp Temperatura Precipitaţii Vânt Presiune Umiditate
    00:00 +24°C° 0 mm 2 m/s 744 mmHg 57%
    01:00 +23°C° 0 mm 2 m/s 744 mmHg 59%
    02:00 +22°C° 0 mm 1 m/s 744 mmHg 61%
    03:00 +22°C° 0 mm 1 m/s 744 mmHg 63%
    04:00 +21°C° 0 mm 1 m/s 744 mmHg 65%
    05:00 +22°C° 0 mm 1 m/s 744 mmHg 63%
    06:00 +23°C° 0 mm 1 m/s 744 mmHg 60%
    07:00 +24°C° 0 mm 1 m/s 745 mmHg 58%
    08:00 +26°C° 0 mm 1 m/s 745 mmHg 52%
    09:00 +28°C° 0 mm 2 m/s 745 mmHg 47%
    10:00 +30°C° 0 mm 2 m/s 745 mmHg 41%
    11:00 +33°C° 0 mm 3 m/s 744 mmHg 37%
    12:00 +34°C° 0 mm 3 m/s 744 mmHg 34%
    13:00 +36°C° 0 mm 3 m/s 744 mmHg 30%
    14:00 +36°C° 0 mm 3 m/s 744 mmHg 30%
    15:00 +36°C° 0 mm 3 m/s 743 mmHg 29%
    16:00 +36°C° 0 mm 2 m/s 743 mmHg 29%
    17:00 +34°C° 0 mm 2 m/s 743 mmHg 34%
    18:00 +31°C° 0 mm 2 m/s 743 mmHg 39%
    19:00 +28°C° 0 mm 1 m/s 743 mmHg 44%
    20:00 +27°C° 0 mm 1 m/s 743 mmHg 46%
    21:00 +27°C° 0 mm 1 m/s 743 mmHg 48%
    22:00 +26°C° 0 mm 1 m/s 743 mmHg 51%
    23:00 +25°C° 0 mm 2 m/s 743 mmHg 52%
    Arată mai mult